AIZ1071 LLBG-LGRP

Flight info

Callsign AIZ1071
Flight time N/A
Altitude 35000
Route SUVAS N128 FOXLI
Aircraft A21N/M-SDE2E3FGHIRWXY/LB1

Departure

Time 2026-05-07 21:18
Airport Ben Gurion International Airport (LLBG)

Arrival

Time N/A
Airport Rhodes International Airport "Diagoras" (LGRP)
Time Latitude Longitude Altitude Speed Heading
2026-05-07 20:35 32.00188 34.87846 119 ft 0 kts 121°
2026-05-07 21:02 32.00198 34.87828 120 ft 4 kts 122°
2026-05-07 21:03 32.00212 34.87801 118 ft 4 kts 120°
2026-05-07 21:03 32.00222 34.87778 118 ft 4 kts 92°
2026-05-07 21:03 32.00214 34.87753 118 ft 4 kts 42°
2026-05-07 21:03 32.00192 34.87734 121 ft 4 kts 33°
2026-05-07 21:04 32.00171 34.87718 120 ft 4 kts 32°
2026-05-07 21:04 32.00148 34.87701 119 ft 4 kts 31°
2026-05-07 21:04 32.00125 34.87685 119 ft 4 kts 31°
2026-05-07 21:04 32.00114 34.87677 119 ft 0 kts 31°
2026-05-07 21:09 32.00130 34.87689 119 ft 9 kts 31°
2026-05-07 21:09 32.00193 34.87733 121 ft 6 kts 31°
2026-05-07 21:09 32.00199 34.87738 120 ft 1 kts 31°
2026-05-07 21:09 32.00193 34.87733 120 ft 2 kts 31°
2026-05-07 21:10 32.00195 34.87735 120 ft 5 kts 31°
2026-05-07 21:10 32.00314 34.87820 119 ft 24 kts 31°
2026-05-07 21:10 32.00406 34.87887 118 ft 2 kts 32°
2026-05-07 21:11 32.00412 34.87892 120 ft 3 kts 32°
2026-05-07 21:11 32.00447 34.87918 121 ft 8 kts 32°
2026-05-07 21:11 32.00592 34.87926 123 ft 15 kts
2026-05-07 21:12 32.00616 34.87937 121 ft 2 kts 30°
2026-05-07 21:12 32.00646 34.87960 120 ft 8 kts 32°
2026-05-07 21:12 32.00707 34.88004 120 ft 13 kts 31°
2026-05-07 21:12 32.00792 34.88064 121 ft 16 kts 31°
2026-05-07 21:13 32.00898 34.88140 119 ft 20 kts 32°
2026-05-07 21:13 32.01021 34.88233 120 ft 23 kts 32°
2026-05-07 21:13 32.01162 34.88331 122 ft 25 kts 30°
2026-05-07 21:13 32.01307 34.88455 123 ft 27 kts 45°
2026-05-07 21:14 32.01429 34.88635 122 ft 29 kts 61°
2026-05-07 21:14 32.01482 34.88757 120 ft 30 kts 73°
2026-05-07 21:14 32.01488 34.88785 120 ft 30 kts 79°
2026-05-07 21:15 32.01525 34.89036 120 ft 32 kts 80°
2026-05-07 21:15 32.01566 34.89156 121 ft 11 kts 29°
2026-05-07 21:15 32.01658 34.89149 120 ft 16 kts 349°
2026-05-07 21:15 32.01739 34.89091 120 ft 9 kts 284°
2026-05-07 21:16 32.01739 34.89048 120 ft 0 kts 261°
2026-05-07 21:17 32.01730 34.88983 122 ft 36 kts 261°
2026-05-07 21:17 32.01636 34.88369 124 ft 115 kts 260°
2026-05-07 21:17 32.01442 34.87130 125 ft 188 kts 258°
2026-05-07 21:17 32.01154 34.85505 514 ft 211 kts 257°
2026-05-07 21:18 32.00824 34.83750 922 ft 234 kts 257°
2026-05-07 21:18 32.00460 34.81802 1222 ft 262 kts 258°
2026-05-07 21:18 32.00034 34.79515 1251 ft 310 kts 258°
2026-05-07 21:18 31.99543 34.76850 1403 ft 352 kts 258°
2026-05-07 21:19 31.99031 34.74015 2694 ft 351 kts 259°
2026-05-07 21:19 31.98557 34.71173 3974 ft 356 kts 264°
2026-05-07 21:19 31.98757 34.68249 4997 ft 363 kts 287°
2026-05-07 21:19 31.99894 34.65594 6013 ft 357 kts 305°
2026-05-07 21:20 32.01268 34.63368 6247 ft 325 kts 303°
2026-05-07 21:20 32.02094 34.61023 6360 ft 300 kts 282°
2026-05-07 21:20 32.02501 34.58665 6928 ft 288 kts 278°
2026-05-07 21:20 32.02772 34.56447 7576 ft 256 kts 276°
2026-05-07 21:21 32.02963 34.54452 7954 ft 240 kts 275°
2026-05-07 21:21 32.03073 34.53131 8055 ft 238 kts 275°
2026-05-07 21:21 32.03199 34.51394 8139 ft 236 kts 274°
2026-05-07 21:21 32.03323 34.49458 8654 ft 239 kts 274°
2026-05-07 21:22 32.03438 34.47510 9495 ft 237 kts 274°
2026-05-07 21:22 32.03546 34.45566 10278 ft 237 kts 274°
2026-05-07 21:22 32.03657 34.43642 10956 ft 238 kts 274°
2026-05-07 21:22 32.03770 34.41692 11627 ft 239 kts 274°
2026-05-07 21:23 32.03884 34.39726 12304 ft 240 kts 274°
2026-05-07 21:23 32.03960 34.38418 12750 ft 242 kts 274°
2026-05-07 21:23 32.04073 34.36435 13423 ft 243 kts 274°
2026-05-07 21:23 32.04188 34.34438 14087 ft 245 kts 274°
2026-05-07 21:24 32.04302 34.32432 14693 ft 246 kts 274°
2026-05-07 21:24 32.04417 34.30414 15302 ft 248 kts 274°
2026-05-07 21:24 32.04532 34.28383 15918 ft 249 kts 273°
2026-05-07 21:24 32.04647 34.26336 16533 ft 251 kts 273°
2026-05-07 21:25 32.04827 34.24277 17124 ft 254 kts 279°
2026-05-07 21:25 32.05309 34.22264 17709 ft 258 kts 290°
2026-05-07 21:25 32.06113 34.20391 18294 ft 261 kts 296°
2026-05-07 21:25 32.07046 34.18537 18806 ft 264 kts 297°
2026-05-07 21:26 32.08006 34.16674 19282 ft 268 kts 297°
2026-05-07 21:26 32.08981 34.14781 19768 ft 271 kts 297°
2026-05-07 21:26 32.09963 34.12862 20269 ft 274 kts 297°
2026-05-07 21:26 32.10954 34.10919 20776 ft 278 kts 297°
2026-05-07 21:27 32.11954 34.08955 21278 ft 281 kts 297°
2026-05-07 21:27 32.12965 34.06966 21785 ft 284 kts 298°
2026-05-07 21:27 32.13985 34.04956 22288 ft 287 kts 298°
2026-05-07 21:27 32.15017 34.02921 22791 ft 290 kts 298°
2026-05-07 21:28 32.16061 34.00863 23296 ft 294 kts 298°
2026-05-07 21:28 32.17140 33.98797 23769 ft 297 kts 300°
2026-05-07 21:28 32.18289 33.96757 24173 ft 301 kts 301°
2026-05-07 21:28 32.19493 33.94719 24591 ft 303 kts 302°
2026-05-07 21:29 32.20709 33.92712 25032 ft 304 kts 303°
2026-05-07 21:29 32.21964 33.90656 25433 ft 306 kts 303°
2026-05-07 21:29 32.23218 33.88603 25808 ft 309 kts 303°